Wind_Speed
6 5 9 9 11 15 18 21 22 19 14 16 17 17 20 27 34 40 46 52 56 55 28 30 22 15 17 22 23 20 19 24 22 24 29 32 35 36 35 34 40 46 49 51
4 4 6 7 11 15 19 23 23 19 15 17 15 15 21 29 34 41 47 52 57 46 29 27 16 18 22 23 22 19 23 23 22 25 30 31 33 34 33 35 42 46 48 50
4 3 4 6 11 14 18 22 23 20 15 19 14 16 22 30 34 42 46 51 56 40 30 19 18 22 24 22 19 23 24 22 22 26 31 34 39 37 37 41 43 45 48 49
4 3 2 5 9 14 18 22 24 22 18 19 14 15 23 28 35 43 45 50 54 37 29 18 21 23 23 20 20 24 22 22 24 26 30 34 37 36 34 40 44 47 49 51
5 4 3 5 8 13 17 22 25 24 19 21 16 17 23 29 36 43 44 47 52 37 26 21 23 24 22 19 21 23 23 23 26 28 30 34 37 39 39 41 45 47 49 51
6 5 5 5 6 10 16 22 23 25 23 22 18 19 24 28 36 43 45 46 51 43 27 22 24 24 21 19 22 22 24 25 27 30 32 34 38 40 41 41 44 47 50 51
8 7 7 5 5 7 13 18 25 26 26 24 22 18 22 27 36 43 44 48 51 48 28 23 25 24 21 20 23 25 27 28 29 30 33 35 37 40 41 41 43 46 50 51
10 9 9 7 4 5 10 16 21 26 27 27 23 19 21 27 34 41 46 49 50 48 33 25 25 24 23 24 25 28 30 31 32 31 33 35 36 39 42 42 43 46 50 53
13 12 11 10 7 5 7 13 18 23 24 26 25 20 19 24 31 39 46 48 49 50 42 26 24 23 23 24 25 26 28 30 33 35 35 36 37 37 40 41 43 46 48 50
16 15 14 13 10 8 7 10 15 18 25 27 25 22 18 22 28 36 43 46 46 48 47 39 27 22 21 22 23 25 27 29 31 34 37 38 38 38 39 41 42 44 46 48
20 17 17 15 14 12 9 9 12 16 20 25 26 24 20 19 25 32 38 42 43 44 50 47 37 26 21 21 22 24 25 27 29 31 34 35 38 39 40 40 41 43 46 47
24 19 20 18 17 16 14 10 11 15 17 21 25 24 21 18 21 27 33 38 40 40 45 47 48 43 31 23 21 22 24 26 29 30 33 34 36 39 40 41 42 44 45 46
27 24 22 22 20 18 18 15 11 13 16 18 22 24 21 18 18 23 28 32 36 36 40 43 45 45 43 36 29 24 23 26 28 30 31 33 35 37 40 42 43 44 44 46
30 28 24 25 25 22 20 19 15 13 15 16 18 21 20 18 16 18 23 27 31 33 35 36 38 40 42 38 35 31 27 25 26 28 31 33 36 38 39 41 42 43 44 44
35 31 28 27 27 25 23 21 19 16 17 16 15 18 20 18 15 14 18 23 26 28 30 32 34 35 38 39 37 35 31 29 28 29 31 33 36 36 38 41 43 44 45 46
37 33 31 28 29 29 25 23 23 19 18 17 16 16 18 18 16 13 14 18 22 25 26 27 30 32 33 34 36 35 36 33 32 31 33 35 36 37 40 43 45 46 47 48
39 37 33 31 31 31 26 25 26 22 20 19 18 15 15 17 16 14 12 14 18 21 24 23 25 27 28 30 30 32 33 33 30 32 33 34 35 36 38 40 44 46 48 50
42 39 38 34 32 32 26 26 25 25 23 21 19 16 14 15 16 15 14 12 14 17 20 22 23 23 25 28 28 28 29 31 31 30 31 32 33 35 37 39 43 46 48 50
44 42 40 38 34 31 26 27 27 26 22 21 19 17 15 14 15 16 15 13 13 14 17 20 22 22 22 23 25 26 26 28 30 30 29 28 29 31 33 35 38 43 47 49
42 44 43 39 37 34 26 26 28 27 23 23 21 18 17 14 13 15 16 15 13 14 15 18 20 22 22 23 23 24 24 25 26 28 28 29 29 30 31 35 38 40 44 47
40 43 45 42 41 36 26 25 29 26 26 25 22 20 18 16 15 14 15 16 15 13 15 17 19 20 23 23 23 24 24 25 25 26 28 29 31 33 34 35 37 41 44 47
45 44 45 45 45 37 31 26 29 29 28 26 24 22 20 18 16 15 14 15 16 16 14 16 19 20 21 23 25 25 23 25 27 25 27 30 32 34 35 37 40 42 44 45
47 47 45 45 41 40 39 31 31 30 30 28 26 24 22 21 19 18 16 16 16 16 16 16 18 20 22 22 24 26 26 25 25 27 27 29 32 34 36 38 40 42 43 45
47 48 50 48 43 41 41 37 35 33 33 31 29 27 24 22 21 21 19 17 17 17 17 16 17 19 22 24 24 25 27 27 27 27 27 30 32 35 36 39 40 42 43 43
48 48 50 50 44 42 43 44 41 38 35 31 32 29 27 25 23 22 22 20 19 18 18 18 18 17 20 23 25 26 27 28 29 29 30 31 33 34 36 38 40 42 43 44
48 44 51 49 45 45 45 49 48 42 39 35 33 32 30 28 26 24 24 23 22 21 20 19 20 19 19 20 24 26 27 29 30 31 32 33 34 36 37 37 38 40 42 42
Wind_Direction
323 339 349 4 7 4 1 353 349 350 351 352 343 350 356 350 346 345 342 339 336 344 343 345 349 355 345 342 342 346 346 345 346 345 348 345 344 344 343 337 331 332 337 339
314 336 350 6 9 5 4 357 354 355 354 355 346 352 355 351 350 346 346 340 341 347 346 349 5 358 350 348 351 356 352 354 357 356 352 349 348 349 349 342 342 344 344 345
300 326 350 7 11 9 7 0 357 359 359 354 351 349 356 353 352 351 349 343 346 351 350 360 4 357 353 356 1 359 2 2 360 355 355 357 358 355 352 350 349 350 351 352
279 313 321 2 12 16 14 6 0 360 358 358 356 358 356 356 355 357 353 349 349 357 356 3 3 359 1 4 5 5 6 4 358 355 357 357 357 357 354 355 355 356 356 359
265 284 270 341 8 21 21 14 5 2 360 3 358 1 1 358 358 1 357 355 352 3 1 4 5 3 6 9 8 7 7 4 1 360 358 358 0 360 358 358 360 2 1 3
249 254 249 314 350 16 26 24 13 8 9 6 5 2 0 359 2 5 2 1 356 5 4 7 7 7 12 14 9 9 8 5 4 4 6 5 5 4 4 5 7 8 8 8
241 242 242 283 328 5 22 25 23 17 11 8 7 6 2 2 4 7 4 2 2 4 9 9 11 14 21 19 15 15 13 9 7 6 9 9 8 8 10 12 12 12 12 11
239 232 234 260 293 340 12 16 18 16 12 7 5 4 4 3 5 9 11 8 7 7 14 11 16 22 24 25 23 21 20 17 14 10 11 11 10 10 13 15 16 15 14 15
240 229 231 245 259 302 347 9 11 18 16 10 8 2 1 2 7 11 16 14 15 15 17 19 18 24 25 28 24 21 20 17 18 15 13 12 11 9 10 13 13 13 14 14
240 233 229 238 252 267 318 350 2 9 13 15 6 4 1 4 10 12 17 17 19 27 24 23 20 17 19 21 19 15 16 14 16 17 16 16 14 12 11 10 10 10 11 13
240 239 234 232 247 255 279 323 345 358 5 9 10 3 1 4 9 14 18 21 23 27 36 35 29 23 13 12 9 10 9 10 12 12 13 15 16 16 16 13 11 11 12 13
240 239 236 233 239 249 264 291 324 341 355 6 5 5 4 3 8 13 20 25 25 25 28 36 43 39 30 17 7 3 3 4 5 7 8 9 11 10 11 14 15 17 18 18
240 240 237 236 234 244 255 271 298 324 339 351 3 2 1 3 8 13 19 25 27 25 27 30 33 40 46 42 32 14 5 1 360 1 4 7 7 9 12 14 14 17 19 19
237 240 240 238 238 240 249 262 279 305 322 338 352 358 0 2 10 14 17 22 29 26 26 27 32 32 35 43 45 41 35 23 11 6 5 9 8 11 15 20 19 18 20 21
238 239 242 243 240 241 244 255 270 287 304 318 334 352 354 360 4 10 16 17 22 27 25 26 30 33 37 39 40 38 37 39 34 26 20 20 20 21 26 28 28 27 27 27
239 237 239 242 245 242 244 253 264 275 288 303 316 334 350 355 360 360 7 13 15 19 24 28 28 30 37 36 36 37 35 35 33 32 30 29 30 28 25 24 27 29 31 31
243 242 237 239 246 247 242 248 258 266 276 289 298 314 335 348 354 354 353 2 6 12 14 20 27 27 27 31 33 37 39 36 32 30 29 27 26 23 21 20 26 29 30 28
243 244 244 238 243 248 246 246 254 260 270 278 285 296 317 336 345 350 351 346 352 360 4 10 18 27 28 29 27 29 34 36 33 29 28 26 25 22 19 19 22 24 26 25
246 243 247 243 241 245 247 248 252 257 262 270 275 283 295 318 336 342 346 345 337 345 351 357 6 13 17 23 26 25 24 28 31 28 26 24 21 18 17 17 16 17 18 18
247 247 244 245 245 241 243 249 254 255 258 264 268 271 281 295 319 332 338 342 339 337 335 343 353 359 5 10 13 14 14 14 17 21 20 17 15 14 12 9 9 12 12 12
248 248 248 244 246 239 245 247 249 253 252 259 264 268 269 278 296 315 329 333 334 341 332 329 336 346 352 356 2 6 5 5 6 5 5 7 8 6 6 5 4 4 5 8
251 248 247 246 243 244 249 249 247 248 250 253 259 263 265 269 278 295 312 325 327 329 336 329 326 330 338 344 347 353 356 357 358 359 358 356 357 359 359 359 0 1 3 5
250 247 247 246 243 243 247 243 245 245 245 249 255 259 263 267 268 278 292 306 320 323 331 331 328 325 324 329 336 340 345 348 350 352 352 352 352 354 355 356 356 358 360 360
250 246 244 244 240 239 242 241 242 243 244 246 250 254 260 265 266 269 278 290 304 318 326 332 332 330 326 323 323 328 333 338 341 343 345 346 348 350 352 354 354 354 356 359
247 247 242 243 241 239 239 240 239 240 243 242 245 251 256 261 264 266 270 278 288 301 315 325 331 333 333 332 325 321 322 326 331 335 337 339 341 344 347 349 349 351 354 356
242 249 242 245 245 240 236 241 242 241 243 243 243 247 251 257 260 264 268 271 278 287 299 311 322 327 333 336 336 333 324 320 321 325 329 333 337 340 342 343 345 348 351 353
Height
5861 5860 5859 5858 5856 5852 5848 5843 5838 5833 5830 5827 5823 5819 5816 5812 5805 5798 5788 5776 5762 5750 5740 5734 5729 5727 5725 5720 5716 5711 5708 5704 5699 5695 5690 5684 5677 5670 5662 5655 5647 5637 5624 5612
5861 5859 5858 5857 5855 5852 5847 5842 5837 5832 5829 5826 5822 5819 5815 5810 5804 5796 5786 5772 5758 5745 5739 5733 5729 5727 5723 5718 5714 5710 5706 5702 5698 5694 5689 5682 5676 5668 5661 5652 5642 5631 5619 5608
5859 5859 5857 5856 5854 5851 5847 5842 5836 5831 5828 5824 5821 5818 5814 5810 5803 5794 5783 5769 5756 5744 5738 5732 5729 5726 5722 5717 5713 5709 5704 5701 5697 5692 5686 5679 5671 5663 5655 5647 5638 5629 5616 5603
5857 5857 5856 5855 5854 5851 5846 5841 5835 5830 5827 5823 5820 5818 5814 5808 5801 5792 5781 5768 5755 5744 5738 5733 5729 5724 5720 5716 5712 5708 5704 5700 5696 5691 5686 5679 5672 5664 5655 5646 5635 5624 5612 5599
5856 5855 5855 5854 5853 5850 5846 5841 5835 5830 5826 5823 5819 5817 5813 5807 5800 5791 5780 5768 5755 5744 5738 5733 5729 5724 5719 5715 5712 5708 5704 5700 5696 5690 5684 5677 5669 5661 5651 5642 5632 5622 5610 5599
5852 5853 5853 5853 5851 5849 5845 5841 5836 5830 5826 5822 5818 5815 5812 5806 5799 5790 5780 5769 5756 5746 5739 5734 5729 5724 5719 5716 5712 5707 5704 5700 5694 5689 5683 5676 5668 5659 5651 5642 5632 5622 5610 5598
5850 5851 5851 5851 5850 5848 5844 5841 5836 5832 5825 5821 5817 5814 5810 5805 5798 5791 5781 5770 5758 5747 5739 5734 5730 5724 5720 5716 5713 5709 5705 5700 5695 5688 5682 5675 5668 5660 5651 5642 5633 5623 5612 5599
5847 5848 5849 5848 5848 5847 5843 5840 5835 5830 5825 5821 5817 5813 5811 5805 5799 5791 5783 5771 5761 5749 5739 5734 5730 5725 5721 5718 5715 5711 5706 5700 5694 5688 5682 5676 5669 5660 5652 5643 5634 5624 5613 5602
5844 5844 5845 5846 5845 5845 5842 5839 5836 5831 5827 5822 5817 5813 5810 5805 5800 5791 5784 5773 5764 5752 5740 5735 5731 5727 5724 5720 5716 5712 5706 5702 5696 5690 5684 5676 5669 5661 5652 5645 5636 5625 5615 5604
5840 5841 5841 5843 5843 5842 5840 5838 5835 5831 5827 5822 5817 5813 5808 5804 5799 5793 5786 5776 5768 5757 5745 5738 5733 5729 5726 5722 5718 5714 5709 5703 5697 5692 5684 5678 5670 5662 5654 5646 5636 5627 5618 5607
5835 5837 5838 5838 5840 5839 5838 5836 5834 5831 5827 5822 5817 5813 5807 5803 5799 5794 5788 5779 5771 5762 5753 5744 5736 5731 5727 5724 5719 5715 5709 5704 5699 5692 5686 5678 5671 5664 5655 5647 5638 5630 5620 5609
5830 5832 5833 5834 5835 5836 5835 5834 5832 5829 5827 5821 5817 5813 5807 5802 5798 5794 5789 5782 5775 5766 5759 5751 5742 5735 5728 5724 5720 5714 5709 5705 5700 5693 5687 5681 5673 5666 5658 5650 5640 5632 5623 5612
5824 5826 5828 5830 5831 5832 5831 5831 5829 5827 5824 5821 5816 5813 5806 5801 5797 5794 5789 5784 5777 5770 5763 5756 5748 5740 5731 5726 5721 5716 5710 5706 5701 5695 5688 5681 5674 5667 5659 5651 5643 5635 5626 5616
5816 5820 5822 5824 5825 5826 5827 5827 5826 5824 5822 5820 5816 5811 5806 5801 5796 5793 5789 5785 5779 5773 5766 5759 5752 5744 5737 5730 5723 5717 5712 5707 5702 5696 5689 5683 5676 5669 5661 5653 5645 5636 5628 5618
5809 5813 5816 5817 5819 5821 5822 5822 5821 5821 5819 5817 5815 5810 5806 5801 5796 5792 5789 5785 5780 5774 5768 5762 5755 5748 5741 5734 5727 5721 5715 5708 5703 5697 5690 5684 5677 5669 5662 5656 5648 5639 5632 5622
5801 5805 5808 5811 5812 5814 5817 5817 5817 5817 5816 5814 5812 5808 5805 5800 5795 5791 5787 5784 5780 5775 5770 5764 5758 5751 5745 5738 5731 5725 5718 5712 5705 5699 5693 5686 5679 5672 5665 5657 5650 5642 5634 5626
5794 5797 5800 5804 5804 5806 5811 5812 5811 5812 5811 5810 5808 5806 5803 5799 5795 5790 5786 5782 5779 5775 5770 5765 5759 5753 5747 5741 5734 5728 5721 5715 5708 5702 5695 5689 5682 5675 5668 5659 5652 5645 5637 5628
5787 5790 5792 5796 5798 5799 5804 5805 5806 5806 5806 5805 5804 5802 5800 5797 5793 5789 5784 5780 5777 5774 5770 5765 5760 5754 5748 5743 5736 5730 5724 5717 5712 5705 5698 5692 5685 5678 5670 5663 5655 5647 5639 5631
5779 5782 5784 5786 5790 5793 5798 5798 5799 5799 5801 5799 5798 5798 5796 5794 5791 5787 5783 5779 5775 5772 5768 5765 5760 5755 5749 5743 5737 5732 5725 5719 5713 5707 5700 5693 5687 5680 5672 5665 5658 5650 5642 5634
5770 5773 5776 5779 5781 5785 5789 5791 5791 5792 5794 5793 5793 5792 5791 5790 5788 5785 5781 5777 5773 5769 5766 5763 5759 5754 5749 5744 5738 5732 5726 5720 5714 5708 5702 5695 5689 5682 5675 5667 5660 5653 5644 5637
5760 5763 5765 5770 5771 5777 5783 5782 5782 5785 5788 5786 5786 5786 5785 5785 5784 5782 5778 5775 5771 5767 5764 5760 5757 5753 5748 5744 5739 5733 5727 5721 5716 5710 5704 5698 5691 5684 5677 5671 5664 5656 5648 5640
5752 5753 5756 5759 5763 5771 5774 5775 5775 5776 5777 5778 5779 5779 5779 5779 5778 5777 5775 5772 5769 5764 5761 5757 5754 5751 5747 5743 5738 5733 5727 5722 5716 5711 5705 5699 5692 5685 5678 5671 5665 5658 5650 5643
5738 5744 5745 5750 5756 5760 5761 5765 5765 5766 5768 5770 5771 5772 5772 5773 5772 5771 5769 5768 5766 5762 5758 5754 5751 5748 5744 5740 5736 5731 5726 5721 5716 5711 5705 5699 5693 5686 5679 5673 5666 5659 5652 5643
5726 5730 5733 5737 5747 5749 5752 5754 5755 5756 5758 5762 5763 5764 5765 5766 5766 5765 5764 5762 5761 5759 5756 5752 5748 5745 5741 5737 5733 5729 5724 5719 5715 5710 5704 5698 5692 5686 5679 5673 5666 5658 5651 5643
5713 5718 5722 5727 5736 5738 5741 5742 5743 5746 5749 5752 5754 5756 5758 5758 5758 5758 5758 5757 5755 5754 5752 5749 5746 5742 5738 5734 5730 5726 5722 5717 5713 5708 5703 5697 5691 5685 5679 5672 5665 5658 5651 5643
5702 5707 5709 5715 5722 5723 5729 5730 5734 5738 5740 5743 5745 5746 5748 5749 5750 5750 5750 5750 5749 5748 5747 5745 5743 5739 5735 5731 5727 5723 5719 5714 5710 5705 5701 5695 5690 5684 5678 5671 5664 5657 5649 5642